Time,TemperatureF,DewpointF,PressureIn,WindDirection,WindDirectionDegrees,WindSpeedMPH,WindSpeedGustMPH,Humidity,HourlyPrecipIn,Conditions,Clouds,dailyrainin,SolarRadiationWatts/m^2,SoftwareType,DateUTC
2013-02-01 00:00:00,19.9,9.0,29.48,SW,234,2.0,17.0,62,0.84,,---,0.78,0.00,VWS V14.00,2013-02-01 05:00:00,
2013-02-01 00:01:00,19.9,9.0,29.48,WSW,246,3.0,17.0,62,0.84,,---,0.78,0.00,VWS V14.00,2013-02-01 05:01:00,
2013-02-01 00:06:00,19.9,9.0,29.48,WNW,293,2.0,17.0,62,0.84,,---,0.78,0.00,VWS V14.00,2013-02-01 05:06:00,
2013-02-01 00:11:00,19.8,8.9,29.48,WNW,298,12.0,17.0,62,0.84,,---,0.78,0.00,VWS V14.00,2013-02-01 05:11:00,
2013-02-01 00:16:00,19.7,8.8,29.48,South,190,3.0,10.0,62,0.00,,---,0.78,0.00,VWS V14.00,2013-02-01 05:16:00,
2013-02-01 00:21:00,19.7,8.4,29.48,SSW,196,7.0,12.0,61,0.00,,---,0.78,0.00,VWS V14.00,2013-02-01 05:21:00,
2013-02-01 00:26:00,19.6,8.4,29.49,WSW,253,3.0,12.0,61,0.00,,---,0.78,0.00,VWS V14.00,2013-02-01 05:26:00,
2013-02-01 00:31:00,19.6,8.4,29.48,WNW,294,5.0,12.0,61,0.00,,---,0.78,0.00,VWS V14.00,2013-02-01 05:31:00,
2013-02-01 00:36:00,19.5,8.3,29.49,NW,306,3.0,12.0,61,0.00,,---,0.78,0.00,VWS V14.00,2013-02-01 05:36:00,
2013-02-01 00:41:00,19.5,8.3,29.49,West,262,4.0,12.0,61,0.00,,---,0.78,0.00,VWS V14.00,2013-02-01 05:41:00,
2013-02-01 00:46:00,19.4,8.2,29.49,WNW,291,4.0,12.0,61,0.00,,---,0.78,0.00,VWS V14.00,2013-02-01 05:46:00,
2013-02-01 00:51:00,19.4,8.2,29.49,WNW,286,1.0,12.0,61,0.00,,---,0.78,0.00,VWS V14.00,2013-02-01 05:51:00,
2013-02-01 00:56:00,19.3,8.4,29.49,SW,223,4.0,12.0,62,0.00,,---,0.78,0.00,VWS V14.00,2013-02-01 05:56:00,
2013-02-01 01:01:00,19.2,8.3,29.49,SW,236,4.0,12.0,62,0.00,,---,0.78,0.00,VWS V14.00,2013-02-01 06:01:00,
2013-02-01 01:06:00,19.3,8.4,29.50,WNW,289,8.0,12.0,62,0.00,,---,0.78,0.00,VWS V14.00,2013-02-01 06:06:00,
2013-02-01 01:11:00,19.3,8.4,29.49,NW,325,7.0,15.0,62,0.00,,---,0.78,0.00,VWS V14.00,2013-02-01 06:11:00,
2013-02-01 01:16:00,19.3,8.4,29.49,SSW,194,1.0,3.0,62,0.00,,---,0.78,0.00,VWS V14.00,2013-02-01 06:16:00,
2013-02-01 01:21:00,19.4,8.9,29.50,WNW,294,4.0,7.0,63,0.00,,---,0.78,0.00,VWS V14.00,2013-02-01 06:21:00,
2013-02-01 01:26:00,19.3,8.8,29.50,West,274,0.0,16.0,63,0.00,,---,0.78,0.00,VWS V14.00,2013-02-01 06:26:00,
2013-02-01 01:31:00,19.3,8.8,29.50,WNW,294,0.0,18.0,63,0.00,,---,0.78,0.00,VWS V14.00,2013-02-01 06:31:00,
2013-02-01 01:36:00,19.3,8.8,29.51,NW,309,4.0,18.0,63,0.00,,---,0.78,0.00,VWS V14.00,2013-02-01 06:36:00,
2013-02-01 01:41:00,19.3,8.8,29.51,WSW,251,4.0,18.0,63,0.00,,---,0.78,0.00,VWS V14.00,2013-02-01 06:41:00,
2013-02-01 01:46:00,19.3,9.1,29.51,WNW,287,1.0,4.0,64,0.00,,---,0.78,0.00,VWS V14.00,2013-02-01 06:46:00,
2013-02-01 01:52:00,19.2,9.0,29.51,WSW,258,3.0,8.0,64,0.00,,---,0.78,0.00,VWS V14.00,2013-02-01 06:52:00,
2013-02-01 01:57:00,19.1,8.9,29.51,WNW,286,6.0,12.0,64,0.00,,---,0.78,0.00,VWS V14.00,2013-02-01 06:57:00,
2013-02-01 02:02:00,19.1,8.6,29.51,West,275,10.0,15.0,63,0.00,,---,0.78,0.00,VWS V14.00,2013-02-01 07:02:00,
2013-02-01 02:06:00,19.1,8.2,29.50,WNW,288,1.0,15.0,62,0.00,,---,0.78,0.00,VWS V14.00,2013-02-01 07:06:00,
2013-02-01 02:12:00,19.1,8.2,29.51,SW,232,6.0,15.0,62,0.00,,---,0.78,0.00,VWS V14.00,2013-02-01 07:12:00,
2013-02-01 02:17:00,19.1,8.2,29.51,West,262,6.0,17.0,62,0.00,,---,0.00,0.00,VWS V14.00,2013-02-01 07:17:00,
2013-02-01 02:22:00,19.1,7.9,29.51,South,182,7.0,17.0,61,0.00,,---,0.00,0.00,VWS V14.00,2013-02-01 07:22:00,
2013-02-01 02:27:00,19.1,7.9,29.51,SW,221,8.0,17.0,61,0.00,,---,0.00,0.00,VWS V14.00,2013-02-01 07:27:00,
2013-02-01 02:32:00,19.0,7.8,29.51,WSW,247,4.0,17.0,61,0.00,,---,0.00,0.00,VWS V14.00,2013-02-01 07:32:00,
2013-02-01 02:37:00,19.0,8.1,29.51,WSW,240,5.0,17.0,62,0.00,,---,0.00,0.00,VWS V14.00,2013-02-01 07:37:00,
2013-02-01 02:42:00,18.9,8.1,29.51,SW,226,5.0,17.0,62,0.00,,---,0.00,0.00,VWS V14.00,2013-02-01 07:42:00,
2013-02-01 02:47:00,18.9,8.4,29.51,WSW,257,9.0,11.0,63,0.00,,---,0.00,0.00,VWS V14.00,2013-02-01 07:47:00,
2013-02-01 02:52:00,18.8,7.9,29.51,South,178,3.0,13.0,62,0.00,,---,0.00,0.00,VWS V14.00,2013-02-01 07:52:00,
2013-02-01 02:57:00,18.8,8.3,29.51,WSW,252,3.0,13.0,63,0.00,,---,0.00,0.00,VWS V14.00,2013-02-01 07:57:00,
2013-02-01 03:02:00,18.6,7.8,29.51,SW,229,8.0,13.0,62,0.00,,---,0.00,0.00,VWS V14.00,2013-02-01 08:02:00,
2013-02-01 03:07:00,18.6,7.8,29.52,WSW,245,9.0,16.0,62,0.00,,---,0.00,0.00,VWS V14.00,2013-02-01 08:07:00,
2013-02-01 03:12:00,18.6,7.4,29.51,SW,219,2.0,16.0,61,0.00,,---,0.00,0.00,VWS V14.00,2013-02-01 08:12:00,
2013-02-01 03:17:00,18.5,7.3,29.52,WSW,250,3.0,7.0,61,0.00,,---,0.00,0.00,VWS V14.00,2013-02-01 08:17:00,
2013-02-01 03:22:00,18.5,7.3,29.52,West,280,1.0,8.0,61,0.00,,---,0.00,0.00,VWS V14.00,2013-02-01 08:22:00,
2013-02-01 03:27:00,18.5,7.3,29.52,SE,128,5.0,8.0,61,0.00,,---,0.00,0.00,VWS V14.00,2013-02-01 08:27:00,
2013-02-01 03:32:00,18.4,7.2,29.52,NW,304,1.0,12.0,61,0.00,,---,0.00,0.00,VWS V14.00,2013-02-01 08:32:00,
2013-02-01 03:37:00,18.4,7.2,29.52,WNW,287,1.0,12.0,61,0.00,,---,0.00,0.00,VWS V14.00,2013-02-01 08:37:00,
2013-02-01 03:42:00,18.3,7.1,29.53,WSW,246,4.0,13.0,61,0.00,,---,0.00,0.00,VWS V14.00,2013-02-01 08:42:00,
2013-02-01 03:47:00,18.2,7.0,29.53,SW,226,3.0,4.0,61,0.00,,---,0.00,0.00,VWS V14.00,2013-02-01 08:47:00,
2013-02-01 03:52:00,18.2,7.0,29.53,West,269,13.0,13.0,61,0.00,,---,0.00,0.00,VWS V14.00,2013-02-01 08:52:00,
2013-02-01 03:57:00,18.2,7.4,29.53,WSW,246,4.0,13.0,62,0.00,,---,0.00,0.00,VWS V14.00,2013-02-01 08:57:00,
2013-02-01 04:02:00,18.1,7.6,29.53,WSW,242,2.0,13.0,63,0.00,,---,0.00,0.00,VWS V14.00,2013-02-01 09:02:00,
2013-02-01 04:08:00,18.1,7.6,29.53,WSW,240,6.0,13.0,63,0.00,,---,0.00,0.00,VWS V14.00,2013-02-01 09:08:00,
2013-02-01 04:13:00,18.1,7.6,29.53,NW,304,4.0,13.0,63,0.00,,---,0.00,0.00,VWS V14.00,2013-02-01 09:13:00,
2013-02-01 04:18:00,18.0,7.2,29.53,West,260,1.0,10.0,62,0.00,,---,0.00,0.00,VWS V14.00,2013-02-01 09:18:00,
2013-02-01 04:23:00,18.0,7.5,29.54,West,265,3.0,11.0,63,0.00,,---,0.00,0.00,VWS V14.00,2013-02-01 09:23:00,
2013-02-01 04:28:00,18.0,7.5,29.54,SSW,202,11.0,11.0,63,0.00,,---,0.00,0.00,VWS V14.00,2013-02-01 09:28:00,
2013-02-01 04:33:00,17.9,7.8,29.54,WSW,257,3.0,12.0,64,0.00,,---,0.00,0.00,VWS V14.00,2013-02-01 09:33:00,
2013-02-01 04:38:00,17.9,7.8,29.55,WSW,242,5.0,12.0,64,0.00,,---,0.00,0.00,VWS V14.00,2013-02-01 09:38:00,
2013-02-01 04:43:00,17.7,7.3,29.55,SW,232,3.0,17.0,63,0.00,,---,0.00,0.00,VWS V14.00,2013-02-01 09:43:00,
2013-02-01 04:48:00,17.7,7.6,29.55,West,265,2.0,4.0,64,0.00,,---,0.00,0.00,VWS V14.00,2013-02-01 09:48:00,
2013-02-01 04:53:00,17.6,7.2,29.56,West,277,0.0,9.0,63,0.00,,---,0.00,0.00,VWS V14.00,2013-02-01 09:53:00,
2013-02-01 04:58:00,17.6,7.5,29.56,West,262,4.0,15.0,64,0.00,,---,0.00,0.00,VWS V14.00,2013-02-01 09:58:00,
2013-02-01 05:03:00,17.6,7.2,29.56,WNW,290,1.0,15.0,63,0.00,,---,0.00,0.00,VWS V14.00,2013-02-01 10:03:00,
2013-02-01 05:08:00,17.6,7.2,29.56,WSW,253,0.0,15.0,63,0.00,,---,0.00,0.00,VWS V14.00,2013-02-01 10:08:00,
2013-02-01 05:13:00,17.7,7.3,29.56,WSW,247,1.0,15.0,63,0.00,,---,0.00,0.00,VWS V14.00,2013-02-01 10:13:00,
2013-02-01 05:18:00,17.7,7.3,29.56,SW,218,0.0,4.0,63,0.00,,---,0.00,0.00,VWS V14.00,2013-02-01 10:18:00,
2013-02-01 05:23:00,17.7,7.3,29.57,WSW,242,4.0,15.0,63,0.00,,---,0.00,0.00,VWS V14.00,2013-02-01 10:23:00,
2013-02-01 05:28:00,17.6,7.2,29.57,WNW,289,3.0,15.0,63,0.00,,---,0.00,0.00,VWS V14.00,2013-02-01 10:28:00,
2013-02-01 05:33:00,17.6,7.2,29.57,SSW,195,1.0,15.0,63,0.00,,---,0.00,0.00,VWS V14.00,2013-02-01 10:33:00,
2013-02-01 05:38:00,17.5,7.4,29.57,WSW,245,0.0,15.0,64,0.00,,---,0.00,0.00,VWS V14.00,2013-02-01 10:38:00,
2013-02-01 05:43:00,17.5,7.4,29.57,WSW,247,0.0,15.0,64,0.00,,---,0.00,0.00,VWS V14.00,2013-02-01 10:43:00,
2013-02-01 05:48:00,17.5,7.4,29.57,SSW,203,2.0,5.0,64,0.00,,---,0.00,0.00,VWS V14.00,2013-02-01 10:48:00,
2013-02-01 05:53:00,17.5,7.4,29.58,WSW,246,0.0,7.0,64,0.00,,---,0.00,0.00,VWS V14.00,2013-02-01 10:53:00,
2013-02-01 05:58:00,17.5,7.4,29.58,West,271,1.0,7.0,64,0.00,,---,0.00,0.00,VWS V14.00,2013-02-01 10:58:00,
2013-02-01 06:03:00,17.5,7.4,29.59,West,280,0.0,9.0,64,0.00,,---,0.00,0.00,VWS V14.00,2013-02-01 11:03:00,
2013-02-01 06:08:00,17.5,7.8,29.59,SW,224,2.0,9.0,65,0.00,,---,0.00,0.00,VWS V14.00,2013-02-01 11:08:00,
2013-02-01 06:13:00,17.4,7.7,29.59,WSW,242,4.0,9.0,65,0.00,,---,0.00,0.00,VWS V14.00,2013-02-01 11:13:00,
2013-02-01 06:18:00,17.4,7.7,29.59,WSW,238,5.0,9.0,65,0.00,,---,0.00,0.00,VWS V14.00,2013-02-01 11:18:00,
2013-02-01 06:23:00,17.4,7.7,29.59,West,260,1.0,10.0,65,0.00,,---,0.00,0.00,VWS V14.00,2013-02-01 11:23:00,
2013-02-01 06:28:00,17.4,8.0,29.59,WNW,289,3.0,10.0,66,0.00,,---,0.00,0.00,VWS V14.00,2013-02-01 11:28:00,
2013-02-01 06:33:00,17.3,7.9,29.60,NW,305,3.0,10.0,66,0.00,,---,0.00,0.00,VWS V14.00,2013-02-01 11:33:00,
2013-02-01 06:38:00,17.2,7.8,29.60,NW,321,3.0,10.0,66,0.00,,---,0.00,0.00,VWS V14.00,2013-02-01 11:38:00,
2013-02-01 06:43:00,16.7,8.3,29.61,WNW,292,6.0,10.0,69,0.00,,---,0.00,0.00,VWS V14.00,2013-02-01 11:43:00,
2013-02-01 06:48:00,16.3,8.6,29.61,WNW,284,7.0,9.0,71,0.00,,---,0.00,0.00,VWS V14.00,2013-02-01 11:48:00,
2013-02-01 06:53:00,16.0,8.9,29.61,WNW,294,5.0,9.0,73,0.00,,---,0.00,0.00,VWS V14.00,2013-02-01 11:53:00,
2013-02-01 06:58:00,15.8,9.0,29.62,West,273,0.0,9.0,74,0.00,,---,0.00,0.00,VWS V14.00,2013-02-01 11:58:00,
2013-02-01 07:03:00,15.7,9.2,29.62,WNW,290,0.0,9.0,75,0.00,,---,0.00,0.00,VWS V14.00,2013-02-01 12:03:00,
2013-02-01 07:08:00,15.7,9.5,29.63,WNW,287,0.0,9.0,76,0.00,,---,0.00,0.00,VWS V14.00,2013-02-01 12:08:00,
2013-02-01 07:13:00,15.6,9.7,29.63,NW,320,5.0,9.0,77,0.00,,---,0.00,7.00,VWS V14.00,2013-02-01 12:13:00,
2013-02-01 07:18:00,15.4,9.8,29.64,NW,307,3.0,6.0,78,0.00,,---,0.00,9.00,VWS V14.00,2013-02-01 12:18:00,
2013-02-01 07:23:00,15.3,9.7,29.64,NW,319,2.0,7.0,78,0.00,,---,0.00,11.00,VWS V14.00,2013-02-01 12:23:00,
2013-02-01 07:28:00,15.2,9.9,29.64,NW,315,3.0,7.0,79,0.00,,---,0.00,14.00,VWS V14.00,2013-02-01 12:28:00,
2013-02-01 07:33:00,15.1,10.1,29.65,West,280,6.0,7.0,80,0.00,,---,0.00,18.00,VWS V14.00,2013-02-01 12:33:00,
2013-02-01 07:38:00,15.0,10.0,29.65,WNW,300,0.0,8.0,80,0.00,,---,0.00,21.00,VWS V14.00,2013-02-01 12:38:00,
2013-02-01 07:43:00,15.0,10.0,29.65,NW,314,1.0,8.0,80,0.00,,---,0.00,26.00,VWS V14.00,2013-02-01 12:43:00,
2013-02-01 07:48:00,15.0,10.2,29.66,WNW,286,1.0,3.0,81,0.00,,---,0.00,32.00,VWS V14.00,2013-02-01 12:48:00,
2013-02-01 07:53:00,14.9,10.1,29.66,WNW,292,2.0,9.0,81,0.00,,---,0.00,39.00,VWS V14.00,2013-02-01 12:53:00,
2013-02-01 07:58:00,14.8,10.0,29.66,WNW,302,2.0,9.0,81,0.00,,---,0.00,44.00,VWS V14.00,2013-02-01 12:58:00,
2013-02-01 08:03:00,14.8,10.0,29.66,NW,319,0.0,9.0,81,0.00,,---,0.00,51.00,VWS V14.00,2013-02-01 13:03:00,
2013-02-01 08:08:00,14.8,10.0,29.67,WNW,293,6.0,9.0,81,0.00,,---,0.00,62.00,VWS V14.00,2013-02-01 13:08:00,
2013-02-01 08:13:00,14.8,10.0,29.67,NW,308,4.0,10.0,81,0.00,,---,0.00,70.00,VWS V14.00,2013-02-01 13:13:00,
2013-02-01 08:18:00,14.8,10.0,29.68,WNW,286,0.0,5.0,81,0.00,,---,0.00,77.00,VWS V14.00,2013-02-01 13:18:00,
2013-02-01 08:23:00,14.8,10.0,29.68,NW,304,2.0,9.0,81,0.00,,---,0.00,84.00,VWS V14.00,2013-02-01 13:23:00,
2013-02-01 08:28:00,14.8,10.0,29.69,WNW,294,4.0,10.0,81,0.00,,---,0.00,84.00,VWS V14.00,2013-02-01 13:28:00,
2013-02-01 08:33:00,14.8,10.0,29.69,WNW,294,2.0,10.0,81,0.00,,---,0.00,84.00,VWS V14.00,2013-02-01 13:33:00,
2013-02-01 08:38:00,14.8,10.0,29.69,WNW,302,1.0,10.0,81,0.00,,---,0.00,88.00,VWS V14.00,2013-02-01 13:38:00,
2013-02-01 08:43:00,15.0,10.2,29.70,NW,320,1.0,10.0,81,0.00,,---,0.00,95.00,VWS V14.00,2013-02-01 13:43:00,
2013-02-01 08:48:00,15.2,10.4,29.70,NW,313,7.0,9.0,81,0.00,,---,0.00,107.00,VWS V14.00,2013-02-01 13:48:00,
2013-02-01 08:53:00,15.4,10.4,29.70,NW,308,6.0,9.0,80,0.00,,---,0.00,125.00,VWS V14.00,2013-02-01 13:53:00,
2013-02-01 08:58:00,15.4,10.1,29.71,WNW,294,3.0,10.0,79,0.00,,---,0.00,134.00,VWS V14.00,2013-02-01 13:58:00,
2013-02-01 09:03:00,15.4,9.8,29.71,WNW,301,6.0,10.0,78,0.00,,---,0.00,142.00,VWS V14.00,2013-02-01 14:03:00,
2013-02-01 09:08:00,15.5,9.3,29.71,WSW,242,0.0,10.0,76,0.00,,---,0.00,156.00,VWS V14.00,2013-02-01 14:08:00,
2013-02-01 09:13:00,15.7,9.5,29.72,NW,322,8.0,11.0,76,0.00,,---,0.00,155.00,VWS V14.00,2013-02-01 14:13:00,
2013-02-01 09:18:00,15.7,9.2,29.71,SW,229,1.0,8.0,75,0.00,,---,0.00,153.00,VWS V14.00,2013-02-01 14:18:00,
2013-02-01 09:23:00,15.8,9.0,29.72,NW,312,6.0,8.0,74,0.00,,---,0.00,142.00,VWS V14.00,2013-02-01 14:23:00,
2013-02-01 09:28:00,15.8,8.7,29.72,WSW,255,1.0,14.0,73,0.00,,---,0.00,139.00,VWS V14.00,2013-02-01 14:28:00,
2013-02-01 09:33:00,15.8,8.7,29.72,SSW,203,0.0,14.0,73,0.00,,---,0.00,146.00,VWS V14.00,2013-02-01 14:33:00,
2013-02-01 09:38:00,16.0,8.9,29.72,NW,313,7.0,14.0,73,0.00,,---,0.00,156.00,VWS V14.00,2013-02-01 14:38:00,
2013-02-01 09:43:00,16.0,8.6,29.72,NW,320,9.0,14.0,72,0.00,,---,0.00,165.00,VWS V14.00,2013-02-01 14:43:00,
2013-02-01 09:48:00,16.0,8.3,29.73,NW,319,3.0,5.0,71,0.00,,---,0.00,167.00,VWS V14.00,2013-02-01 14:48:00,
2013-02-01 09:53:00,16.0,8.9,29.73,WNW,298,3.0,14.0,73,0.00,,---,0.00,162.00,VWS V14.00,2013-02-01 14:53:00,
2013-02-01 09:58:00,15.9,8.5,29.74,WNW,296,8.0,14.0,72,0.00,,---,0.00,156.00,VWS V14.00,2013-02-01 14:58:00,
2013-02-01 10:03:00,15.9,8.8,29.74,WNW,297,5.0,14.0,73,0.00,,---,0.00,160.00,VWS V14.00,2013-02-01 15:03:00,
2013-02-01 10:08:00,16.0,8.9,29.74,NW,311,1.0,14.0,73,0.00,,---,0.00,179.00,VWS V14.00,2013-02-01 15:08:00,
2013-02-01 10:13:00,15.9,8.8,29.75,SW,217,0.0,14.0,73,0.00,,---,0.00,171.00,VWS V14.00,2013-02-01 15:13:00,
2013-02-01 10:18:00,15.7,8.9,29.75,West,271,2.0,10.0,74,0.00,,---,0.00,167.00,VWS V14.00,2013-02-01 15:18:00,
2013-02-01 10:23:00,15.7,9.5,29.75,WNW,290,1.0,10.0,76,0.00,,---,0.00,174.00,VWS V14.00,2013-02-01 15:23:00,
2013-02-01 10:28:00,16.0,9.8,29.76,West,269,0.0,10.0,76,0.00,,---,0.00,174.00,VWS V14.00,2013-02-01 15:28:00,
2013-02-01 10:33:00,16.2,10.0,29.76,SW,232,3.0,10.0,76,0.00,,---,0.00,178.00,VWS V14.00,2013-02-01 15:33:00,
2013-02-01 10:38:00,16.3,10.1,29.76,WNW,288,1.0,10.0,76,0.00,,---,0.00,179.00,VWS V14.00,2013-02-01 15:38:00,
2013-02-01 10:43:00,16.6,10.4,29.77,West,270,1.0,10.0,76,0.00,,---,0.00,179.00,VWS V14.00,2013-02-01 15:43:00,
2013-02-01 10:48:00,16.8,10.9,29.77,NW,312,0.0,3.0,77,0.00,,---,0.00,190.00,VWS V14.00,2013-02-01 15:48:00,
2013-02-01 10:53:00,16.6,10.7,29.77,WNW,296,5.0,9.0,77,0.00,,---,0.00,195.00,VWS V14.00,2013-02-01 15:53:00,
2013-02-01 10:58:00,16.2,10.6,29.77,NW,306,0.0,9.0,78,0.00,,---,0.00,199.00,VWS V14.00,2013-02-01 15:58:00,
2013-02-01 11:03:00,16.3,10.7,29.77,NW,313,0.0,9.0,78,0.00,,---,0.00,218.00,VWS V14.00,2013-02-01 16:03:00,
2013-02-01 11:08:00,16.3,10.7,29.77,NW,322,3.0,9.0,78,0.00,,---,0.00,218.00,VWS V14.00,2013-02-01 16:08:00,
2013-02-01 11:13:00,16.2,10.8,29.77,WNW,293,0.0,9.0,79,0.00,,---,0.00,207.00,VWS V14.00,2013-02-01 16:13:00,
2013-02-01 11:18:00,16.3,11.2,29.77,WNW,293,0.0,2.0,80,0.00,,---,0.00,197.00,VWS V14.00,2013-02-01 16:18:00,
2013-02-01 11:23:00,16.7,11.6,29.77,NW,308,3.0,8.0,80,0.00,,---,0.00,204.00,VWS V14.00,2013-02-01 16:23:00,
2013-02-01 11:28:00,16.6,11.5,29.78,WNW,299,4.0,8.0,80,0.00,,---,0.00,209.00,VWS V14.00,2013-02-01 16:28:00,
2013-02-01 11:33:00,16.3,11.2,29.78,NW,307,5.0,8.0,80,0.00,,---,0.00,221.00,VWS V14.00,2013-02-01 16:33:00,
2013-02-01 11:38:00,16.2,11.1,29.78,NNW,340,2.0,8.0,80,0.00,,---,0.00,216.00,VWS V14.00,2013-02-01 16:38:00,
2013-02-01 11:43:00,16.3,11.2,29.78,NW,304,1.0,8.0,80,0.00,,---,0.00,213.00,VWS V14.00,2013-02-01 16:43:00,
2013-02-01 11:48:00,16.4,11.3,29.78,NW,316,0.0,5.0,80,0.00,,---,0.00,250.00,VWS V14.00,2013-02-01 16:48:00,
2013-02-01 11:53:00,16.6,11.8,29.78,SSW,212,3.0,5.0,81,0.00,,---,0.00,223.00,VWS V14.00,2013-02-01 16:53:00,
2013-02-01 11:58:00,16.2,11.1,29.78,NNW,342,5.0,8.0,80,0.00,,---,0.00,225.00,VWS V14.00,2013-02-01 16:58:00,
2013-02-01 12:03:00,16.0,10.6,29.78,WNW,292,5.0,10.0,79,0.00,,---,0.00,250.00,VWS V14.00,2013-02-01 17:03:00,
2013-02-01 12:08:00,15.9,10.8,29.78,SW,219,1.0,10.0,80,0.00,,---,0.00,265.00,VWS V14.00,2013-02-01 17:08:00,
2013-02-01 12:13:00,16.3,11.2,29.78,West,260,0.0,10.0,80,0.00,,---,0.00,265.00,VWS V14.00,2013-02-01 17:13:00,
2013-02-01 12:18:00,16.6,11.5,29.78,NW,315,0.0,6.0,80,0.00,,---,0.00,272.00,VWS V14.00,2013-02-01 17:18:00,
2013-02-01 12:23:00,16.7,11.6,29.79,NW,317,4.0,8.0,80,0.00,,---,0.00,343.00,VWS V14.00,2013-02-01 17:23:00,
2013-02-01 12:28:00,16.6,11.2,29.79,NW,322,3.0,8.0,79,0.00,,---,0.00,253.00,VWS V14.00,2013-02-01 17:28:00,
2013-02-01 12:34:00,16.3,10.7,29.79,West,273,0.0,8.0,78,0.00,,---,0.00,258.00,VWS V14.00,2013-02-01 17:34:00,
2013-02-01 12:39:00,16.1,10.2,29.79,NW,313,5.0,8.0,77,0.00,,---,0.00,294.00,VWS V14.00,2013-02-01 17:39:00,
2013-02-01 12:43:00,15.9,10.0,29.79,WNW,302,5.0,8.0,77,0.00,,---,0.00,338.00,VWS V14.00,2013-02-01 17:43:00,
2013-02-01 12:49:00,16.0,10.4,29.79,WNW,291,7.0,7.0,78,0.00,,---,0.00,246.00,VWS V14.00,2013-02-01 17:49:00,
2013-02-01 12:53:00,15.9,10.3,29.79,WNW,296,3.0,9.0,78,0.00,,---,0.00,250.00,VWS V14.00,2013-02-01 17:53:00,
2013-02-01 12:58:00,15.6,9.7,29.79,WNW,295,7.0,13.0,77,0.00,,---,0.00,283.00,VWS V14.00,2013-02-01 17:58:00,
2013-02-01 13:03:00,15.4,9.5,29.79,NW,308,0.0,13.0,77,0.00,,---,0.00,288.00,VWS V14.00,2013-02-01 18:03:00,
2013-02-01 13:08:00,15.9,10.3,29.79,NW,312,4.0,13.0,78,0.00,,---,0.00,306.00,VWS V14.00,2013-02-01 18:08:00,
2013-02-01 13:13:00,16.1,10.5,29.80,NW,307,7.0,13.0,78,0.00,,---,0.00,292.00,VWS V14.00,2013-02-01 18:13:00,
2013-02-01 13:18:00,16.2,10.3,29.80,NW,315,7.0,11.0,77,0.00,,---,0.00,290.00,VWS V14.00,2013-02-01 18:18:00,
2013-02-01 13:23:00,15.8,9.9,29.80,NNW,327,3.0,11.0,77,0.00,,---,0.00,265.00,VWS V14.00,2013-02-01 18:23:00,
2013-02-01 13:29:00,15.8,10.2,29.80,NW,306,4.0,11.0,78,0.00,,---,0.00,313.00,VWS V14.00,2013-02-01 18:29:00,
2013-02-01 13:34:00,15.7,9.8,29.80,WNW,287,5.0,12.0,77,0.00,,---,0.00,301.00,VWS V14.00,2013-02-01 18:34:00,
2013-02-01 13:39:00,15.8,9.9,29.80,NNW,328,5.0,12.0,77,0.00,,---,0.00,338.00,VWS V14.00,2013-02-01 18:39:00,
2013-02-01 13:44:00,16.1,10.5,29.80,NW,321,5.0,13.0,78,0.00,,---,0.00,329.00,VWS V14.00,2013-02-01 18:44:00,
2013-02-01 13:49:00,16.3,10.4,29.81,West,277,9.0,9.0,77,0.00,,---,0.00,338.00,VWS V14.00,2013-02-01 18:49:00,
2013-02-01 13:54:00,16.4,10.5,29.81,NW,308,6.0,10.0,77,0.00,,---,0.00,345.00,VWS V14.00,2013-02-01 18:54:00,
2013-02-01 13:59:00,16.4,10.2,29.81,NW,310,8.0,12.0,76,0.00,,---,0.00,318.00,VWS V14.00,2013-02-01 18:59:00,
2013-02-01 14:04:00,16.3,9.5,29.81,WSW,246,3.0,12.0,74,0.00,,---,0.00,309.00,VWS V14.00,2013-02-01 19:04:00,
2013-02-01 14:09:00,16.2,8.5,29.81,West,277,0.0,15.0,71,0.00,,---,0.00,330.00,VWS V14.00,2013-02-01 19:09:00,
2013-02-01 14:14:00,16.2,7.8,29.81,NNW,333,14.0,15.0,69,0.00,,---,0.00,260.00,VWS V14.00,2013-02-01 19:14:00,
2013-02-01 14:19:00,16.2,7.8,29.82,WSW,244,1.0,9.0,69,0.00,,---,0.00,206.00,VWS V14.00,2013-02-01 19:19:00,
2013-02-01 14:24:00,16.5,8.1,29.82,NW,307,6.0,10.0,69,0.00,,---,0.00,200.00,VWS V14.00,2013-02-01 19:24:00,
2013-02-01 14:29:00,16.6,7.9,29.82,NNW,336,12.0,12.0,68,0.00,,---,0.00,230.00,VWS V14.00,2013-02-01 19:29:00,
2013-02-01 14:34:00,16.4,7.4,29.82,NW,321,9.0,17.0,67,0.00,,---,0.00,199.00,VWS V14.00,2013-02-01 19:34:00,
2013-02-01 14:39:00,16.2,7.2,29.82,NW,313,6.0,17.0,67,0.00,,---,0.00,144.00,VWS V14.00,2013-02-01 19:39:00,
2013-02-01 14:44:00,15.9,6.9,29.83,WNW,286,10.0,17.0,67,0.00,,---,0.00,135.00,VWS V14.00,2013-02-01 19:44:00,
2013-02-01 14:49:00,15.7,7.0,29.83,NW,314,6.0,11.0,68,0.00,,---,0.00,151.00,VWS V14.00,2013-02-01 19:49:00,
2013-02-01 14:54:00,15.8,7.4,29.83,NW,306,2.0,11.0,69,0.00,,---,0.00,172.00,VWS V14.00,2013-02-01 19:54:00,
2013-02-01 14:59:00,16.0,8.0,29.83,NW,312,7.0,11.0,70,0.00,,---,0.00,132.00,VWS V14.00,2013-02-01 19:59:00,
2013-02-01 15:04:00,16.2,8.1,29.83,NNW,329,3.0,11.0,70,0.00,,---,0.00,77.00,VWS V14.00,2013-02-01 20:04:00,
2013-02-01 15:09:00,16.3,8.2,29.83,West,268,0.0,11.0,70,0.00,,---,0.00,63.00,VWS V14.00,2013-02-01 20:09:00,
2013-02-01 15:14:00,16.2,8.1,29.83,WNW,303,0.0,11.0,70,0.00,,---,0.00,74.00,VWS V14.00,2013-02-01 20:14:00,
2013-02-01 15:19:00,16.3,8.2,29.83,WSW,246,0.0,4.0,70,0.00,,---,0.00,63.00,VWS V14.00,2013-02-01 20:19:00,
2013-02-01 15:24:00,16.3,8.2,29.84,NW,319,3.0,6.0,70,0.00,,---,0.00,58.00,VWS V14.00,2013-02-01 20:24:00,
2013-02-01 15:29:00,16.2,8.1,29.84,WNW,299,0.0,7.0,70,0.00,,---,0.00,56.00,VWS V14.00,2013-02-01 20:29:00,
2013-02-01 15:34:00,16.1,7.7,29.84,WNW,301,5.0,10.0,69,0.00,,---,0.00,56.00,VWS V14.00,2013-02-01 20:34:00,
2013-02-01 15:39:00,16.0,7.3,29.84,NW,308,0.0,10.0,68,0.00,,---,0.00,54.00,VWS V14.00,2013-02-01 20:39:00,
2013-02-01 15:44:00,16.0,7.3,29.85,NNW,335,4.0,19.0,68,0.00,,---,0.00,46.00,VWS V14.00,2013-02-01 20:44:00,
2013-02-01 15:49:00,16.0,6.7,29.85,West,269,4.0,10.0,66,0.00,,---,0.00,51.00,VWS V14.00,2013-02-01 20:49:00,
2013-02-01 15:54:00,16.1,6.4,29.85,West,265,2.0,10.0,65,0.00,,---,0.00,54.00,VWS V14.00,2013-02-01 20:54:00,
2013-02-01 15:59:00,16.1,6.1,29.85,NNW,333,9.0,10.0,64,0.00,,---,0.00,56.00,VWS V14.00,2013-02-01 20:59:00,
2013-02-01 16:04:00,16.1,6.1,29.86,WNW,298,1.0,10.0,64,0.00,,---,0.00,46.00,VWS V14.00,2013-02-01 21:04:00,
2013-02-01 16:09:00,16.1,6.1,29.86,NW,306,4.0,10.0,64,0.00,,---,0.00,39.00,VWS V14.00,2013-02-01 21:09:00,
2013-02-01 16:14:00,16.1,6.1,29.86,NW,304,8.0,10.0,64,0.00,,---,0.00,39.00,VWS V14.00,2013-02-01 21:14:00,
2013-02-01 16:19:00,16.0,5.6,29.87,West,280,3.0,8.0,63,0.00,,---,0.00,40.00,VWS V14.00,2013-02-01 21:19:00,
2013-02-01 16:24:00,15.7,5.4,29.87,NW,306,3.0,10.0,63,0.00,,---,0.00,47.00,VWS V14.00,2013-02-01 21:24:00,
2013-02-01 16:29:00,15.6,5.6,29.87,NW,319,2.0,10.0,64,0.00,,---,0.00,37.00,VWS V14.00,2013-02-01 21:29:00,
2013-02-01 16:34:00,15.6,5.6,29.87,NW,321,6.0,10.0,64,0.00,,---,0.00,30.00,VWS V14.00,2013-02-01 21:34:00,
2013-02-01 16:39:00,15.5,5.5,29.88,WNW,302,5.0,10.0,64,0.00,,---,0.00,21.00,VWS V14.00,2013-02-01 21:39:00,
2013-02-01 16:44:00,15.4,5.4,29.88,NW,309,3.0,10.0,64,0.00,,---,0.00,16.00,VWS V14.00,2013-02-01 21:44:00,
2013-02-01 16:49:00,15.3,5.3,29.88,NW,306,6.0,8.0,64,0.00,,---,0.00,12.00,VWS V14.00,2013-02-01 21:49:00,
2013-02-01 16:54:00,15.2,5.2,29.88,NW,319,6.0,9.0,64,0.00,,---,0.00,9.00,VWS V14.00,2013-02-01 21:54:00,
2013-02-01 16:59:00,15.1,5.1,29.88,NW,313,2.0,9.0,64,0.00,,---,0.00,5.00,VWS V14.00,2013-02-01 21:59:00,
2013-02-01 17:04:00,15.0,5.0,29.89,NW,311,6.0,9.0,64,0.00,,---,0.00,0.00,VWS V14.00,2013-02-01 22:04:00,
2013-02-01 17:09:00,15.0,5.0,29.89,West,281,1.0,9.0,64,0.00,,---,0.00,0.00,VWS V14.00,2013-02-01 22:09:00,
2013-02-01 17:14:00,14.9,4.9,29.89,WNW,299,3.0,9.0,64,0.00,,---,0.00,0.00,VWS V14.00,2013-02-01 22:14:00,
2013-02-01 17:19:00,14.9,4.9,29.90,WNW,297,4.0,9.0,64,0.00,,---,0.00,0.00,VWS V14.00,2013-02-01 22:19:00,
2013-02-01 17:24:00,14.8,4.8,29.90,NW,307,4.0,9.0,64,0.00,,---,0.00,0.00,VWS V14.00,2013-02-01 22:24:00,
2013-02-01 17:29:00,14.8,4.8,29.90,NW,312,6.0,9.0,64,0.00,,---,0.00,0.00,VWS V14.00,2013-02-01 22:29:00,
2013-02-01 17:34:00,14.8,4.5,29.90,WNW,292,5.0,9.0,63,0.00,,---,0.00,0.00,VWS V14.00,2013-02-01 22:34:00,
2013-02-01 17:39:00,14.8,4.8,29.91,WNW,288,4.0,9.0,64,0.00,,---,0.00,0.00,VWS V14.00,2013-02-01 22:39:00,
2013-02-01 17:44:00,14.8,4.8,29.91,West,263,2.0,9.0,64,0.00,,---,0.00,0.00,VWS V14.00,2013-02-01 22:44:00,
2013-02-01 17:49:00,14.8,4.8,29.92,North,355,4.0,8.0,64,0.00,,---,0.00,0.00,VWS V14.00,2013-02-01 22:49:00,
2013-02-01 17:54:00,14.7,4.8,29.92,NW,319,3.0,8.0,64,0.00,,---,0.00,0.00,VWS V14.00,2013-02-01 22:54:00,
2013-02-01 17:59:00,14.7,4.8,29.92,WNW,285,9.0,9.0,64,0.00,,---,0.00,0.00,VWS V14.00,2013-02-01 22:59:00,
2013-02-01 18:04:00,14.7,4.8,29.93,NW,323,1.0,9.0,64,0.00,,---,0.00,0.00,VWS V14.00,2013-02-01 23:04:00,
2013-02-01 18:09:00,14.7,4.8,29.93,NW,309,3.0,9.0,64,0.00,,---,0.00,0.00,VWS V14.00,2013-02-01 23:09:00,
2013-02-01 18:14:00,14.7,5.1,29.93,West,259,1.0,9.0,65,0.00,,---,0.00,0.00,VWS V14.00,2013-02-01 23:14:00,
2013-02-01 18:19:00,14.8,5.2,29.94,NW,317,0.0,6.0,65,0.00,,---,0.00,0.00,VWS V14.00,2013-02-01 23:19:00,
2013-02-01 18:24:00,14.7,4.8,29.94,NW,314,4.0,10.0,64,0.00,,---,0.00,0.00,VWS V14.00,2013-02-01 23:24:00,
2013-02-01 18:29:00,14.6,4.7,29.94,NW,317,8.0,13.0,64,0.00,,---,0.00,0.00,VWS V14.00,2013-02-01 23:29:00,
2013-02-01 18:34:00,14.5,4.6,29.95,WNW,300,5.0,13.0,64,0.00,,---,0.00,0.00,VWS V14.00,2013-02-01 23:34:00,
2013-02-01 18:39:00,14.4,4.5,29.95,WNW,292,2.0,13.0,64,0.00,,---,0.00,0.00,VWS V14.00,2013-02-01 23:39:00,
2013-02-01 18:44:00,14.4,4.5,29.95,NW,315,10.0,13.0,64,0.00,,---,0.00,0.00,VWS V14.00,2013-02-01 23:44:00,
2013-02-01 18:49:00,14.3,4.4,29.96,WSW,247,0.0,7.0,64,0.00,,---,0.00,0.00,VWS V14.00,2013-02-01 23:49:00,
2013-02-01 18:54:00,14.3,4.4,29.96,NW,315,0.0,8.0,64,0.00,,---,0.00,0.00,VWS V14.00,2013-02-01 23:54:00,
2013-02-01 18:59:00,14.2,4.6,29.96,WSW,255,0.0,8.0,65,0.00,,---,0.00,0.00,VWS V14.00,2013-02-01 23:59:00,
2013-02-01 19:05:00,14.2,4.6,29.96,NW,304,11.0,11.0,65,0.00,,---,0.00,0.00,VWS V14.00,2013-02-02 00:05:00,
2013-02-01 19:10:00,14.1,4.5,29.96,NW,317,4.0,11.0,65,0.00,,---,0.00,0.00,VWS V14.00,2013-02-02 00:10:00,
2013-02-01 19:15:00,14.0,4.4,29.97,NNW,327,3.0,11.0,65,0.00,,---,0.00,0.00,VWS V14.00,2013-02-02 00:15:00,
2013-02-01 19:20:00,14.0,4.4,29.97,WNW,300,5.0,7.0,65,0.00,,---,0.00,0.00,VWS V14.00,2013-02-02 00:20:00,
2013-02-01 19:25:00,14.0,4.8,29.97,NW,319,5.0,7.0,66,0.00,,---,0.00,0.00,VWS V14.00,2013-02-02 00:25:00,
2013-02-01 19:30:00,13.9,4.7,29.97,West,278,4.0,7.0,66,0.00,,---,0.00,0.00,VWS V14.00,2013-02-02 00:30:00,
2013-02-01 19:35:00,13.8,4.2,29.98,West,279,3.0,11.0,65,0.00,,---,0.00,0.00,VWS V14.00,2013-02-02 00:35:00,
2013-02-01 19:40:00,13.9,4.7,29.98,WNW,298,0.0,11.0,66,0.00,,---,0.00,0.00,VWS V14.00,2013-02-02 00:40:00,
2013-02-01 19:45:00,13.9,5.0,29.98,WNW,292,0.0,11.0,67,0.00,,---,0.00,0.00,VWS V14.00,2013-02-02 00:45:00,
2013-02-01 19:50:00,13.9,5.0,29.98,WNW,292,2.0,2.0,67,0.00,,---,0.00,0.00,VWS V14.00,2013-02-02 00:50:00,
2013-02-01 19:55:00,13.9,5.0,29.98,West,261,0.0,4.0,67,0.00,,---,0.00,0.00,VWS V14.00,2013-02-02 00:55:00,
2013-02-01 20:00:00,13.9,5.0,29.98,West,261,0.0,4.0,67,0.00,,---,0.00,0.00,VWS V14.00,2013-02-02 01:00:00,
2013-02-01 20:05:00,13.8,4.9,29.98,NW,310,5.0,8.0,67,0.00,,---,0.00,0.00,VWS V14.00,2013-02-02 01:05:00,
2013-02-01 20:10:00,13.7,4.8,29.98,NW,308,5.0,8.0,67,0.00,,---,0.00,0.00,VWS V14.00,2013-02-02 01:10:00,
2013-02-01 20:15:00,13.6,4.7,29.99,WNW,296,3.0,8.0,67,0.00,,---,0.00,0.00,VWS V14.00,2013-02-02 01:15:00,
2013-02-01 20:20:00,13.6,5.0,29.99,WNW,282,0.0,6.0,68,0.00,,---,0.00,0.00,VWS V14.00,2013-02-02 01:20:00,
2013-02-01 20:25:00,13.5,5.2,29.99,NW,309,1.0,6.0,69,0.00,,---,0.00,0.00,VWS V14.00,2013-02-02 01:25:00,
2013-02-01 20:30:00,13.6,5.7,29.99,NW,309,4.0,6.0,70,0.00,,---,0.00,0.00,VWS V14.00,2013-02-02 01:30:00,
2013-02-01 20:35:00,13.5,5.6,29.99,NW,307,3.0,6.0,70,0.00,,---,0.00,0.00,VWS V14.00,2013-02-02 01:35:00,
2013-02-01 20:40:00,13.4,5.8,29.99,NW,308,3.0,6.0,71,0.00,,---,0.00,0.00,VWS V14.00,2013-02-02 01:40:00,
2013-02-01 20:45:00,13.4,5.8,30.00,NW,313,0.0,6.0,71,0.00,,---,0.00,0.00,VWS V14.00,2013-02-02 01:45:00,
2013-02-01 20:50:00,13.4,6.1,30.00,WNW,293,5.0,6.0,72,0.00,,---,0.00,0.00,VWS V14.00,2013-02-02 01:50:00,
2013-02-01 20:55:00,13.2,5.9,30.00,NW,315,2.0,8.0,72,0.00,,---,0.00,0.00,VWS V14.00,2013-02-02 01:55:00,
2013-02-01 21:00:00,13.1,6.1,30.00,NW,309,3.0,8.0,73,0.00,,---,0.00,0.00,VWS V14.00,2013-02-02 02:00:00,
2013-02-01 21:05:00,13.0,6.3,30.00,WNW,290,2.0,8.0,74,0.00,,---,0.00,0.00,VWS V14.00,2013-02-02 02:05:00,
2013-02-01 21:10:00,13.0,6.6,30.00,NW,325,0.0,8.0,75,0.00,,---,0.00,0.00,VWS V14.00,2013-02-02 02:10:00,
2013-02-01 21:15:00,12.9,6.8,30.01,WNW,300,2.0,8.0,76,0.00,,---,0.00,0.00,VWS V14.00,2013-02-02 02:15:00,
2013-02-01 21:20:00,12.8,6.7,30.01,NW,323,3.0,5.0,76,0.00,,---,0.00,0.00,VWS V14.00,2013-02-02 02:20:00,
2013-02-01 21:25:00,12.8,7.0,30.01,NW,306,3.0,5.0,77,0.00,,---,0.00,0.00,VWS V14.00,2013-02-02 02:25:00,
2013-02-01 21:30:00,12.7,6.9,30.01,NW,306,0.0,5.0,77,0.00,,---,0.00,0.00,VWS V14.00,2013-02-02 02:30:00,
2013-02-01 21:35:00,12.8,7.2,30.02,NW,306,0.0,5.0,78,0.00,,---,0.00,0.00,VWS V14.00,2013-02-02 02:35:00,
2013-02-01 21:40:00,12.9,7.3,30.02,NW,306,0.0,5.0,78,0.00,,---,0.00,0.00,VWS V14.00,2013-02-02 02:40:00,
2013-02-01 21:45:00,12.9,7.3,30.02,NW,306,0.0,5.0,78,0.00,,---,0.00,0.00,VWS V14.00,2013-02-02 02:45:00,
2013-02-01 21:50:00,12.9,7.3,30.02,NW,306,0.0,0.0,78,0.00,,---,0.00,0.00,VWS V14.00,2013-02-02 02:50:00,
2013-02-01 21:55:00,12.8,7.0,30.02,NW,306,1.0,2.0,77,0.00,,---,0.00,0.00,VWS V14.00,2013-02-02 02:55:00,
2013-02-01 22:00:00,12.8,7.0,30.02,NW,306,1.0,2.0,77,0.00,,---,0.00,0.00,VWS V14.00,2013-02-02 03:00:00,
2013-02-01 22:05:00,12.9,7.1,30.02,NW,306,0.0,2.0,77,0.00,,---,0.00,0.00,VWS V14.00,2013-02-02 03:05:00,
2013-02-01 22:10:00,12.9,7.1,30.02,NW,306,0.0,2.0,77,0.00,,---,0.00,0.00,VWS V14.00,2013-02-02 03:10:00,
2013-02-01 22:15:00,12.9,7.3,30.02,NW,306,0.0,2.0,78,0.00,,---,0.00,0.00,VWS V14.00,2013-02-02 03:15:00,
2013-02-01 22:20:00,13.0,7.4,30.02,NW,306,0.0,0.0,78,0.00,,---,0.00,0.00,VWS V14.00,2013-02-02 03:20:00,
2013-02-01 22:25:00,13.0,7.4,30.03,NW,306,0.0,2.0,78,0.00,,---,0.00,0.00,VWS V14.00,2013-02-02 03:25:00,
2013-02-01 22:30:00,13.1,7.5,30.03,NW,306,0.0,2.0,78,0.00,,---,0.00,0.00,VWS V14.00,2013-02-02 03:30:00,
2013-02-01 22:35:00,13.0,7.4,30.03,NW,306,0.0,2.0,78,0.00,,---,0.00,0.00,VWS V14.00,2013-02-02 03:35:00,
2013-02-01 22:40:00,13.1,7.5,30.04,NW,315,3.0,3.0,78,0.00,,---,0.00,0.00,VWS V14.00,2013-02-02 03:40:00,
2013-02-01 22:46:00,13.1,7.5,30.04,NW,325,5.0,5.0,78,0.00,,---,0.00,0.00,VWS V14.00,2013-02-02 03:46:00,
2013-02-01 22:51:00,13.0,7.7,30.04,WNW,299,0.0,6.0,79,0.00,,---,0.00,0.00,VWS V14.00,2013-02-02 03:51:00,
2013-02-01 22:56:00,13.0,8.0,30.04,NW,322,0.0,6.0,80,0.00,,---,0.00,0.00,VWS V14.00,2013-02-02 03:56:00,
2013-02-01 23:00:00,19.3,8.4,29.50,South,175,2.0,15.0,62,0.00,,---,0.78,0.00,VWS V14.00,2013-02-02 04:00:00,
2013-02-01 23:01:00,12.9,7.9,30.04,NW,305,0.0,6.0,80,0.00,,---,0.00,0.00,VWS V14.00,2013-02-02 04:01:00,
2013-02-01 23:06:00,12.8,8.1,30.04,West,277,0.0,6.0,81,0.00,,---,0.00,0.00,VWS V14.00,2013-02-02 04:06:00,
2013-02-01 23:11:00,12.8,8.1,30.04,WNW,298,1.0,6.0,81,0.00,,---,0.00,0.00,VWS V14.00,2013-02-02 04:11:00,
2013-02-01 23:16:00,12.8,8.4,30.04,NW,308,1.0,1.0,82,0.00,,---,0.00,0.00,VWS V14.00,2013-02-02 04:16:00,
2013-02-01 23:21:00,12.7,8.5,30.05,NW,308,0.0,1.0,83,0.00,,---,0.00,0.00,VWS V14.00,2013-02-02 04:21:00,
2013-02-01 23:26:00,12.7,8.5,30.05,NW,308,0.0,4.0,83,0.00,,---,0.00,0.00,VWS V14.00,2013-02-02 04:26:00,
2013-02-01 23:30:00,19.3,9.1,29.51,South,191,2.0,18.0,64,0.00,,---,0.78,0.00,VWS V14.00,2013-02-02 04:30:00,
2013-02-01 23:31:00,12.6,8.4,30.05,NNW,331,0.0,4.0,83,0.00,,---,0.00,0.00,VWS V14.00,2013-02-02 04:31:00,
2013-02-01 23:36:00,12.5,8.3,30.05,NNW,331,0.0,4.0,83,0.00,,---,0.00,0.00,VWS V14.00,2013-02-02 04:36:00,
2013-02-01 23:41:00,12.4,8.2,30.05,NW,306,0.0,4.0,83,0.00,,---,0.00,0.00,VWS V14.00,2013-02-02 04:41:00,
2013-02-01 23:46:00,12.3,8.1,30.05,WNW,302,0.0,0.0,83,0.00,,---,0.00,0.00,VWS V14.00,2013-02-02 04:46:00,
2013-02-01 23:51:00,12.3,8.1,30.06,WNW,302,0.0,1.0,83,0.00,,---,0.00,0.00,VWS V14.00,2013-02-02 04:51:00,
2013-02-01 23:56:00,12.3,8.4,30.06,NW,319,0.0,4.0,84,0.00,,---,0.00,0.00,VWS V14.00,2013-02-02 04:56:00,